Other Public Products
Issued by NWS Grand Forks, ND

Home | Current Version | Previous Version | Graphics & Text | Print | Product List | Glossary On
Versions: 1 2 3 4 5 6 7 8 9 10 11 12 13 14 15 16 17 18 19 20 21 22 23 24 25 26 27 28 29 30 31 32 33 34 35 36 37 38 39 40 41 42 43 44 45 46 47 48 49 50
560
FPUS83 KFGF 200910
OPUFGF
PRAIRIE TO PINES WEATHER ROUNDUP
NATIONAL WEATHER SERVICE EASTERN NORTH DAKOTA/GRAND FORKS ND
400 AM CDT FRI APR 20 2018

 **SATELLITE DATA USED TO AUGMENT SKY COVER AT AUTOMATED STATIONS**
 *****  WEATHER ACROSS EASTERN NORTH DAKOTA  *****

CITY           SKY/WX    TMP DP  RH WIND       PRES   REMARKS
GRAND FORKS    FAIR      31  30  96 S6        30.39R
GRND FORKS AFB FAIR      33  29  84 CALM      30.38R
GRND FORKS NWS   N/A     35  30  83 SW1       30.36R
BUXTON           N/A     35  31  87 W5          N/A
DEVILS LAKE    FAIR      32  30  92 SE5       30.36S
FARGO          FAIR      36  31  82 S8        30.41R
WAHPETON ARPT  PTSUNNY   34  32  93 SE6       30.43S
$$

 *****  WEATHER ACROSS CENTRAL AND WESTERN NORTH DAKOTA  *****

CITY           SKY/WX    TMP DP  RH WIND       PRES   REMARKS
JAMESTOWN      FAIR      33  27  78 S5        30.36S
BISMARCK       FAIR      34  28  79 SE3       30.33S
MINOT          FAIR      31  30  96 CALM      30.29F FOG
MINOT AFB      FAIR      31  31  99 SE6       30.28F FOG     WCI  25
GARRISON         N/A     31  28  89 SE5       30.30S
WILLISTON      FAIR      30  27  88 N3        30.24F
DICKINSON      FAIR      32  28  85 SE10      30.22F WCI  24
HETTINGER      FAIR      33  26  75 E13       30.22F WCI  24
$$

 *****  OTHER OBSERVATIONS NORTHEAST NORTH DAKOTA  *****

CITY           SKY/WX    TMP DP  RH WIND       PRES   REMARKS
WALHALLA       FAIR      34  34 100 S3        30.37R
LANGDON        FAIR      34  34 100 CALM      30.36S
CAVALIER         N/A     34  34 100 CALM      30.36S
GRAFTON        FAIR      32  32 100 SE5       30.39S
CANDO          FAIR      32  32 100 CALM      30.37S FOG
FORT TOTTEN      N/A     37  29  72 SE3       29.95S
ROLLA          FAIR      34  34 100 S5        30.34S
RUGBY          FAIR      34  34 100 E7        30.32F
 ***** THE ABOVE OBSERVATIONS ARE NON NWS ARE NOT QUALITY
        CONTROLLED AND MAY MIS-REPORT RAIN FOR SNOW...
$$

 *****  OTHER OBSERVATIONS SOUTHEAST NORTH DAKOTA *****

CITY           SKY/WX    TMP DP  RH WIND       PRES   REMARKS
COOPERSTOWN    FAIR      36  32  87 S6        30.38S
VALLEY CITY    FAIR      34  34 100 SW7       30.39S
OAKES            N/A     30  30 100 SE6       30.39F WCI  24
GWINNER          N/A     32  30  93 SW6       30.39F
SHEYENNE NWR     N/A     32  32 100 S2        29.95S
BUFFALO          N/A     37  30  75 SE6         N/A
WYNDMERE       NOT AVBL
 ***** THE ABOVE OBSERVATIONS ARE NON NWS ARE NOT QUALITY
       CONTROLLED AND MAY MIS-REPORT RAIN FOR SNOW...
$$

  *****  WEATHER ACROSS NORTHERN MINNESOTA  *****

CITY           SKY/WX    TMP DP  RH WIND       PRES   REMARKS
FLAG ISLAND    FAIR      36  25  64 CALM      30.37S
WARROAD        FAIR      28  27  93 CALM      30.39S
ROSEAU         FAIR      34  28  80 CALM      30.38S
HALLOCK        FAIR      34  30  86 S5        30.37S
THF RVR FALLS  FAIR      35  30  82 CALM      30.40S
HALSTAD        NOT AVBL
FOSSTON        FAIR      34  25  69 S6        30.40S
BAUDETTE       FAIR      29  25  85 CALM      30.38S
WASKISH        FAIR      25  23  93 CALM      30.40R
CROOKSTON      FAIR      36  30  80 SE5       30.40S
$$
  *****  WEATHER ACROSS CENTRAL AND WEST MINNESOTA  *****

CITY           SKY/WX    TMP DP  RH WIND       PRES   REMARKS
BEMIDJI        FAIR      26  20  78 CALM      30.40S
PARK RAPIDS    FAIR      33  27  78 S3        30.40F
WADENA         FAIR      32  25  74 SW3       30.42S
DETROIT LAKES  FAIR      34  32  93 CALM      30.42R
MOORHEAD       FAIR      36  30  80 S8        30.42R
FERGUS FALLS   FAIR      34  28  80 SE5       30.42R
ELBOW LAKE     FAIR      32  28  88 CALM      30.44R
MORRIS MN      FAIR      32  30  93 SE5       30.43R
STAPLES        FAIR      30  21  69 CALM      30.43S
WHEATON        FAIR      32  28  86 SE3       30.44S
$$
  *****  WEATHER ELSEWHERE ACROSS MINNESOTA  *****

CITY           SKY/WX    TMP DP  RH WIND       PRES   REMARKS
DULUTH         FAIR      34  18  52 W7        30.41R
INTRNTL FALLS  FAIR      23  20  88 CALM      30.39R
ELY            FAIR      21  18  86 CALM      30.39S
CLOQUET        FAIR      36  19  51 W7        30.42R
BRAINERD       FAIR      27  20  75 S5        30.44S WCI  22
HIBBING        FAIR      21  18  88 CALM      30.40R
ALEXANDRIA     FAIR      33  25  72 CALM      30.44S
SAINT CLOUD    FAIR      27  26  96 CALM      30.46R
MINNEAPOLIS    FAIR      33  26  75 S3        30.48S
$$

  *****  WEATHER ACROSS SOUTH DAKOTA  *****

CITY           SKY/WX    TMP DP  RH WIND       PRES   REMARKS
SIOUX FALLS    FAIR      30  21  69 E5        30.42F
BROOKINGS      FAIR      28  25  88 CALM      30.41F
WATERTOWN      FAIR      30  26  85 SE8       30.39F WCI  22
HURON          FAIR      33  25  72 SE9       30.38F
SISSETON         N/A     31  27  85 SE6       30.40S
ABERDEEN       FAIR      30  26  85 SE5       30.39F
MITCHELL       FAIR      32  26  78 SE13      30.38F WCI  22
PIERRE         FAIR      34  32  92 SE13      30.29F WCI  25
MOBRIDGE       FAIR      32  25  75 SE5       30.29F
RAPID CITY     FAIR      34  28  79 SE7       30.16F
$$

  *****  SOME WEATHER IN NEARBY STATES *****

CITY           SKY/WX    TMP DP  RH WIND       PRES   REMARKS
GLASGOW MT     FAIR      41  34  76 E15       30.14F
GREAT FALLS MT FAIR      33  30  88 SW8       30.08S
CHEYENNE WY    FAIR      34  25  69 SE16      29.97F WCI  24
SCOTTSBLUFF NE FAIR      41  28  60 SE22G31   30.06F
OMAHA NE       FAIR      38  26  62 SE5       30.43S
DES MOINES IA  FAIR      35  24  64 E6        30.47R
DAVENPORT IA   FAIR      29  25  85 N5        30.50R WCI  24
CHICAGO IL     FAIR      37  23  56 W6        30.45R
EAU CLAIRE WI  FAIR      27  23  85 SW3       30.47R
LA CROSSE WI   FAIR      28  24  85 CALM      30.49R
$$

  *****  SOME NATIONAL WEATHER *****

CITY           SKY/WX    TMP DP  RH WIND       PRES   REMARKS
LA GUARDIA NY  MOCLDY    38  24  57 NW20G26   30.07R
RALEIGH NC     FAIR      36  30  79 CALM      30.26S
ATLANTA GA     FAIR      45  33  63 N8        30.22R
NEW ORLEANS LA FAIR      57  43  59 NE9G21    30.21R
OKLAHOMA CITY  FAIR      42  31  64 E5        30.30R
ALBUQUERQUE NM FAIR      57  33  40 E22       29.85F
SALT LAKE CITY FAIR      47  35  63 SW8       29.70R
LOS ANGELES CA FAIR      55  49  80 E6        30.06S
BOISE ID       FAIR      45  30  55 NW10      30.03R
SEATTLE WA     FAIR      50  36  58 NE3       30.27S
$$

*** WEATHER ACROSS MANITOBA...SASKATCHEWAN AND ONTARIO ***
                ***ONTARIO***

CITY           SKY/WX    TMP DP  RH WIND       PRES   REMARKS
GERALDTON      PTCLDY    18  12  79 CALM      30.36S
THUNDER BAY    CLEAR     25  21  86 W5        30.40R WCI  19
SIOUX LOOKOUT  NOT AVBL
TORONTO        CLEAR     30  19  64 NW14      30.26R WCI  20
BIG TROUT LK   CLEAR     28  23  80 NE5       30.40R WCI  23
PICKLE LAKE    NOT AVBL
DRYDEN         CLEAR     36   9  32 SW5       30.36S
KENORA         CLEAR     36  14  41 SW2       30.36R
$$
                *** MANITOBA***

CITY           SKY/WX    TMP DP  RH WIND       PRES   REMARKS
BRANDON        MOCLDY    32  28  86 NE5       30.33F
DAUPHIN        CLEAR     30  28  93 W2        30.34F
ISLAND LAKE    NOT AVBL
PILOT MOUND      N/A     34  30  86 SE5         N/A
THE PAS        CLEAR     30  21  69 S7        30.30F WCI  23
THOMPSON       CLEAR     36  16  44 S6        30.29S
WINNIPEG       MOCLDY    37  25  60 S2        30.36F
LYNN LAKE      CLEAR     36  25  64 S7        30.15F
CHURCHILL      MOCLDY    34  28  80 S12       30.23F
GILLAM         PTCLDY    36  18  48 S10       30.35R
$$
                ***SASKATCHEWAN***

CITY           SKY/WX    TMP DP  RH WIND       PRES   REMARKS
ESTEVAN        PTCLDY    32  30  93 E7        30.26F
KINDERSLEY     CLEAR     37  32  81 S8        30.08F
LLOYDMINSTER   PTCLDY    36  30  80 S10       30.01F
PRINCE ALBERT  MOCLDY    37  30  75 S10       30.21F
REGINA         CLEAR     32  28  86 SE10      30.25S WCI  24
YORKTON        PTCLDY    30  23  74 S6        30.30F WC



USA.gov is the U.S. government's official web portal to all federal, state and local government web resources and services.